EZY64JW EGCC-EKCH

Flight info

Callsign EZY64JW
Flight time 1h 27m
Altitude 37000
Route SONEX L975 DESIG L603 LAMIX UT29 LIBSO UL975 ERDOW DCT GIGUL DCT LARGA DCT SOPTO DCT DOREV DCT TESPI
Aircraft A320/M-SDE3FGHIRWY/LB1

Departure

Time 2026-05-04 17:30
Airport Manchester Airport (EGCC)

Arrival

Time 2026-05-04 18:57
Airport Copenhagen Kastrup Airport (EKCH)
Time Latitude Longitude Altitude Speed Heading
2026-05-04 17:00 53.36491 -2.28480 255 ft 0 kts 315°
2026-05-04 17:20 53.36460 -2.28429 255 ft 4 kts 306°
2026-05-04 17:20 53.36456 -2.28397 255 ft 4 kts 235°
2026-05-04 17:21 53.36492 -2.28334 255 ft 4 kts 224°
2026-05-04 17:21 53.36503 -2.28316 255 ft 0 kts 224°
2026-05-04 17:24 53.36493 -2.28333 255 ft 8 kts 224°
2026-05-04 17:24 53.36321 -2.28246 255 ft 12 kts 135°
2026-05-04 17:25 53.36256 -2.28136 255 ft 17 kts 134°
2026-05-04 17:25 53.36097 -2.27897 255 ft 10 kts 143°
2026-05-04 17:26 53.35915 -2.27725 255 ft 19 kts 180°
2026-05-04 17:26 53.35605 -2.27503 245 ft 20 kts 142°
2026-05-04 17:27 53.35567 -2.27452 245 ft 0 kts 141°
2026-05-04 17:27 53.35520 -2.27388 248 ft 13 kts 141°
2026-05-04 17:28 53.35337 -2.27187 244 ft 19 kts 177°
2026-05-04 17:29 53.35127 -2.27258 229 ft 9 kts 191°
2026-05-04 17:29 53.34609 -2.28145 227 ft 106 kts 231°
2026-05-04 17:30 53.32508 -2.32531 1183 ft 189 kts 236°
2026-05-04 17:31 53.31902 -2.36516 2585 ft 181 kts 292°
2026-05-04 17:31 53.35003 -2.40865 3890 ft 228 kts 330°
2026-05-04 17:32 53.38200 -2.43077 4874 ft 262 kts 341°
2026-05-04 17:33 53.43466 -2.45585 5007 ft 263 kts 353°
2026-05-04 17:33 53.45284 -2.45360 5005 ft 264 kts 15°
2026-05-04 17:34 53.48387 -2.38480 6026 ft 275 kts 88°
2026-05-04 17:34 53.48388 -2.35251 6889 ft 279 kts 90°
2026-05-04 17:35 53.48300 -2.25239 9313 ft 293 kts 90°
2026-05-04 17:35 53.48258 -2.18186 10438 ft 320 kts 90°
2026-05-04 17:35 53.48239 -2.14364 10673 ft 343 kts 90°
2026-05-04 17:36 53.48218 -2.10230 10952 ft 362 kts 90°
2026-05-04 17:36 53.48196 -2.05973 11581 ft 368 kts 90°
2026-05-04 17:36 53.48176 -2.01655 12303 ft 371 kts 90°
2026-05-04 17:36 53.48157 -1.97296 13021 ft 375 kts 90°
2026-05-04 17:37 53.48140 -1.92897 13728 ft 379 kts 90°
2026-05-04 17:37 53.48124 -1.88454 14362 ft 382 kts 90°
2026-05-04 17:37 53.48107 -1.83978 15007 ft 385 kts 90°
2026-05-04 17:37 53.48094 -1.79452 15637 ft 388 kts 90°
2026-05-04 17:38 53.48082 -1.74902 16255 ft 391 kts 90°
2026-05-04 17:38 53.48072 -1.70315 16860 ft 394 kts 90°
2026-05-04 17:38 53.48040 -1.65705 17456 ft 397 kts 94°
2026-05-04 17:38 53.47618 -1.61107 18014 ft 399 kts 101°
2026-05-04 17:39 53.46167 -1.52125 19019 ft 405 kts 107°
2026-05-04 17:39 53.45351 -1.47582 19511 ft 407 kts 107°
2026-05-04 17:39 53.44530 -1.43029 20014 ft 409 kts 107°
2026-05-04 17:40 53.43702 -1.38449 20519 ft 411 kts 107°
2026-05-04 17:40 53.42867 -1.33845 21013 ft 413 kts 108°
2026-05-04 17:40 53.42029 -1.29218 21501 ft 415 kts 107°
2026-05-04 17:40 53.41187 -1.24577 22000 ft 417 kts 107°
2026-05-04 17:41 53.40340 -1.19911 22491 ft 418 kts 107°
2026-05-04 17:41 53.39490 -1.15234 22983 ft 420 kts 107°
2026-05-04 17:41 53.38635 -1.10551 23465 ft 421 kts 107°
2026-05-04 17:41 53.37773 -1.05846 23858 ft 423 kts 107°
2026-05-04 17:42 53.36905 -1.01118 24209 ft 426 kts 107°
2026-05-04 17:42 53.36327 -0.97976 24430 ft 428 kts 107°
2026-05-04 17:42 53.35447 -0.93200 24775 ft 430 kts 107°
2026-05-04 17:42 53.34562 -0.88406 25132 ft 432 kts 107°
2026-05-04 17:43 53.33816 -0.81883 25611 ft 433 kts 90°
2026-05-04 17:43 53.33969 -0.78496 25856 ft 433 kts 79°
2026-05-04 17:43 53.34900 -0.73713 26230 ft 434 kts 63°
2026-05-04 17:43 53.36432 -0.69419 26561 ft 435 kts 58°
2026-05-04 17:44 53.38045 -0.65117 26913 ft 437 kts 58°
2026-05-04 17:44 53.39661 -0.60812 27251 ft 438 kts 58°
2026-05-04 17:44 53.41281 -0.56486 27582 ft 439 kts 58°
2026-05-04 17:44 53.42906 -0.52140 27908 ft 440 kts 58°
2026-05-04 17:45 53.44530 -0.47782 28238 ft 441 kts 58°
2026-05-04 17:45 53.46153 -0.43409 28562 ft 442 kts 58°
2026-05-04 17:45 53.47780 -0.39011 28877 ft 443 kts 58°
2026-05-04 17:45 53.49405 -0.34611 29320 ft 441 kts 58°
2026-05-04 17:46 53.51019 -0.30237 29789 ft 439 kts 58°
2026-05-04 17:46 53.52620 -0.25889 30238 ft 437 kts 58°
2026-05-04 17:46 53.54215 -0.21545 30612 ft 435 kts 59°
2026-05-04 17:46 53.55808 -0.17222 30930 ft 434 kts 58°
2026-05-04 17:47 53.57393 -0.12901 31249 ft 434 kts 59°
2026-05-04 17:47 53.58972 -0.08572 31563 ft 434 kts 59°
2026-05-04 17:47 53.60531 -0.04291 31886 ft 434 kts 59°
2026-05-04 17:47 53.62104 0.00036 32180 ft 434 kts 59°
2026-05-04 17:48 53.63682 0.04380 32423 ft 436 kts 59°
2026-05-04 17:48 53.65265 0.08736 32711 ft 436 kts 59°
2026-05-04 17:48 53.66849 0.13104 33027 ft 436 kts 59°
2026-05-04 17:48 53.68429 0.17471 33341 ft 436 kts 59°
2026-05-04 17:49 53.70008 0.21842 33660 ft 435 kts 59°
2026-05-04 17:49 53.71584 0.26216 33977 ft 435 kts 59°
2026-05-04 17:49 53.73152 0.30578 34241 ft 435 kts 59°
2026-05-04 17:49 53.74724 0.34953 34479 ft 436 kts 59°
2026-05-04 17:50 53.76294 0.39321 34746 ft 435 kts 59°
2026-05-04 17:50 53.77849 0.43651 34965 ft 436 kts 59°
2026-05-04 17:50 53.79422 0.48045 35168 ft 437 kts 59°
2026-05-04 17:50 53.80996 0.52453 35373 ft 438 kts 59°
2026-05-04 17:51 53.82573 0.56884 35526 ft 440 kts 59°
2026-05-04 17:51 53.84153 0.61331 35702 ft 441 kts 59°
2026-05-04 17:51 53.85736 0.65795 35889 ft 442 kts 59°
2026-05-04 17:51 53.87321 0.70266 36075 ft 443 kts 59°
2026-05-04 17:52 53.88906 0.74749 36265 ft 444 kts 59°
2026-05-04 17:52 53.90489 0.79248 36454 ft 445 kts 59°
2026-05-04 17:52 53.92069 0.83764 36613 ft 446 kts 60°
2026-05-04 17:52 53.93597 0.88349 36764 ft 447 kts 62°
2026-05-04 17:53 53.95061 0.93009 36917 ft 448 kts 63°
2026-05-04 17:53 53.96484 0.97725 37039 ft 450 kts 63°
2026-05-04 17:53 53.99328 1.07307 37060 ft 459 kts 63°
2026-05-04 17:54 54.02264 1.17049 37054 ft 466 kts 63°
2026-05-04 17:54 54.05265 1.26857 37054 ft 468 kts 62°
2026-05-04 17:55 54.08269 1.36685 37057 ft 468 kts 63°
2026-05-04 17:55 54.11243 1.46546 37057 ft 468 kts 63°
2026-05-04 17:56 54.14209 1.56440 37062 ft 469 kts 63°
2026-05-04 17:56 54.17176 1.66353 37058 ft 469 kts 63°
2026-05-04 17:57 54.20138 1.76290 37056 ft 470 kts 63°
2026-05-04 17:57 54.23078 1.86194 37058 ft 470 kts 63°
2026-05-04 17:58 54.26026 1.96176 37062 ft 470 kts 63°
2026-05-04 17:58 54.28971 2.06186 37061 ft 470 kts 63°
2026-05-04 17:59 54.31900 2.16200 37060 ft 471 kts 63°
2026-05-04 18:00 54.36293 2.31283 37050 ft 471 kts 63°
2026-05-04 18:00 54.39198 2.41286 37055 ft 472 kts 63°
2026-05-04 18:01 54.42115 2.51374 37058 ft 472 kts 64°
2026-05-04 18:01 54.45018 2.61488 37058 ft 472 kts 64°
2026-05-04 18:02 54.49364 2.76715 37053 ft 473 kts 64°
2026-05-04 18:02 54.52264 2.86903 37051 ft 474 kts 64°
2026-05-04 18:03 54.55134 2.97045 37058 ft 474 kts 64°
2026-05-04 18:03 54.58025 3.07275 37061 ft 475 kts 64°
2026-05-04 18:04 54.60900 3.17536 37063 ft 475 kts 64°
2026-05-04 18:05 54.65054 3.33072 37062 ft 476 kts 65°
2026-05-04 18:05 54.67771 3.43511 37062 ft 476 kts 65°
2026-05-04 18:06 54.71875 3.59163 37066 ft 477 kts 65°
2026-05-04 18:06 54.74615 3.69629 37061 ft 478 kts 65°
2026-05-04 18:07 54.77332 3.80133 37068 ft 478 kts 66°
2026-05-04 18:07 54.80046 3.90665 37065 ft 479 kts 65°
2026-05-04 18:08 54.82767 4.01213 37066 ft 479 kts 66°
2026-05-04 18:08 54.85496 4.11682 37067 ft 479 kts 62°
2026-05-04 18:09 54.89329 4.20929 37057 ft 467 kts 46°
2026-05-04 18:09 54.93720 4.29206 37072 ft 465 kts 46°
2026-05-04 18:10 54.98110 4.37495 37057 ft 466 kts 46°
2026-05-04 18:10 55.02494 4.45839 37055 ft 467 kts 46°
2026-05-04 18:11 55.06873 4.54214 37058 ft 467 kts 46°
2026-05-04 18:11 55.11251 4.62609 37058 ft 468 kts 46°
2026-05-04 18:12 55.15629 4.71021 37066 ft 468 kts 46°
2026-05-04 18:12 55.20006 4.79472 37070 ft 469 kts 46°
2026-05-04 18:13 55.24373 4.87947 37059 ft 469 kts 46°
2026-05-04 18:13 55.28542 4.96753 37058 ft 470 kts 57°
2026-05-04 18:14 55.30091 5.01805 37058 ft 471 kts 66°
2026-05-04 18:14 55.31824 5.12803 37054 ft 471 kts 80°
2026-05-04 18:15 55.34045 5.35509 37053 ft 472 kts 81°
2026-05-04 18:16 55.35124 5.46900 37050 ft 472 kts 81°
2026-05-04 18:16 55.36200 5.58290 37045 ft 472 kts 81°
2026-05-04 18:17 55.37794 5.75329 37047 ft 473 kts 81°
2026-05-04 18:18 55.39373 5.92478 37051 ft 473 kts 81°
2026-05-04 18:18 55.40414 6.03943 37045 ft 474 kts 81°
2026-05-04 18:19 55.41951 6.21141 37043 ft 475 kts 81°
2026-05-04 18:19 55.42975 6.32628 37039 ft 475 kts 81°
2026-05-04 18:20 55.43983 6.44140 37034 ft 475 kts 81°
2026-05-04 18:20 55.44968 6.55655 37037 ft 475 kts 82°
2026-05-04 18:21 55.45944 6.67109 37034 ft 475 kts 82°
2026-05-04 18:21 55.46917 6.78640 37027 ft 476 kts 82°
2026-05-04 18:22 55.47889 6.90187 37029 ft 476 kts 82°
2026-05-04 18:22 55.48839 7.01735 37029 ft 476 kts 82°
2026-05-04 18:23 55.49778 7.13304 37030 ft 476 kts 82°
2026-05-04 18:23 55.50707 7.24877 37028 ft 476 kts 82°
2026-05-04 18:24 55.51625 7.36455 37024 ft 476 kts 82°
2026-05-04 18:24 55.52532 7.48025 37023 ft 477 kts 82°
2026-05-04 18:25 55.53497 7.59544 37023 ft 477 kts 77°
2026-05-04 18:25 55.55051 7.70921 37031 ft 477 kts 76°
2026-05-04 18:26 55.56610 7.82326 37019 ft 477 kts 76°
2026-05-04 18:26 55.58137 7.93751 37009 ft 478 kts 76°
2026-05-04 18:27 55.59656 8.05215 37002 ft 479 kts 76°
2026-05-04 18:27 55.60833 8.16812 36997 ft 479 kts 83°
2026-05-04 18:28 55.61596 8.28530 37005 ft 480 kts 84°
2026-05-04 18:28 55.62311 8.40270 37001 ft 480 kts 84°
2026-05-04 18:29 55.63024 8.52021 36996 ft 480 kts 84°
2026-05-04 18:29 55.63734 8.63784 37006 ft 480 kts 84°
2026-05-04 18:30 55.64679 8.79441 37002 ft 481 kts 84°
2026-05-04 18:31 55.65489 8.93147 37009 ft 481 kts 84°
2026-05-04 18:31 55.66162 9.04900 36998 ft 480 kts 84°
2026-05-04 18:32 55.66716 9.14768 36911 ft 481 kts 84°
2026-05-04 18:32 55.67046 9.20671 36646 ft 480 kts 84°
2026-05-04 18:32 55.67370 9.26482 36389 ft 480 kts 84°
2026-05-04 18:32 55.67695 9.32357 36132 ft 479 kts 84°
2026-05-04 18:33 55.68013 9.38238 35870 ft 479 kts 84°
2026-05-04 18:33 55.68325 9.44102 35617 ft 478 kts 84°
2026-05-04 18:33 55.68635 9.49965 35364 ft 478 kts 84°
2026-05-04 18:33 55.68946 9.55822 35120 ft 477 kts 84°
2026-05-04 18:34 55.69258 9.61675 34876 ft 477 kts 84°
2026-05-04 18:34 55.69566 9.67522 34635 ft 476 kts 84°
2026-05-04 18:34 55.69869 9.73364 34391 ft 476 kts 84°
2026-05-04 18:34 55.70168 9.79214 34154 ft 475 kts 84°
2026-05-04 18:35 55.70461 9.85057 33909 ft 475 kts 84°
2026-05-04 18:35 55.70751 9.90887 33629 ft 475 kts 84°
2026-05-04 18:35 55.71042 9.96719 33357 ft 475 kts 84°
2026-05-04 18:35 55.71330 10.02560 33082 ft 476 kts 85°
2026-05-04 18:36 55.71615 10.08408 32813 ft 476 kts 85°
2026-05-04 18:36 55.71896 10.14267 32536 ft 477 kts 85°
2026-05-04 18:36 55.72174 10.20141 31805 ft 480 kts 85°
2026-05-04 18:36 55.72455 10.26094 30640 ft 488 kts 85°
2026-05-04 18:37 55.72737 10.32121 29480 ft 493 kts 85°
2026-05-04 18:37 55.73019 10.38205 28239 ft 497 kts 85°
2026-05-04 18:37 55.73300 10.44353 27095 ft 500 kts 85°
2026-05-04 18:37 55.73576 10.50472 26367 ft 493 kts 85°
2026-05-04 18:38 55.73842 10.56440 25541 ft 490 kts 85°
2026-05-04 18:38 55.74107 10.62446 24723 ft 486 kts 85°
2026-05-04 18:38 55.74368 10.68429 23924 ft 483 kts 85°
2026-05-04 18:38 55.74625 10.74347 23065 ft 480 kts 85°
2026-05-04 18:39 55.74878 10.80234 22316 ft 475 kts 85°
2026-05-04 18:39 55.75126 10.86052 21590 ft 470 kts 85°
2026-05-04 18:39 55.75370 10.91817 20895 ft 466 kts 85°
2026-05-04 18:39 55.75607 10.97523 20201 ft 462 kts 85°
2026-05-04 18:40 55.75837 11.03185 19546 ft 457 kts 86°
2026-05-04 18:40 55.76062 11.08793 18919 ft 453 kts 86°
2026-05-04 18:40 55.76282 11.14353 18333 ft 449 kts 86°
2026-05-04 18:40 55.76495 11.19795 18161 ft 433 kts 86°
2026-05-04 18:41 55.76698 11.25041 18010 ft 417 kts 86°
2026-05-04 18:41 55.76892 11.30056 17868 ft 397 kts 86°
2026-05-04 18:41 55.77072 11.34835 17733 ft 378 kts 86°
2026-05-04 18:41 55.77244 11.39431 17594 ft 367 kts 86°
2026-05-04 18:42 55.77370 11.43845 17385 ft 359 kts 91°
2026-05-04 18:42 55.77187 11.48255 16967 ft 358 kts 96°
2026-05-04 18:42 55.76943 11.52640 16537 ft 357 kts 96°
2026-05-04 18:42 55.76695 11.57008 16237 ft 353 kts 96°
2026-05-04 18:43 55.76447 11.61343 15881 ft 352 kts 97°
2026-05-04 18:43 55.76201 11.65655 15532 ft 350 kts 96°
2026-05-04 18:43 55.75959 11.69935 15196 ft 348 kts 96°
2026-05-04 18:43 55.75774 11.74209 14919 ft 344 kts 93°
2026-05-04 18:44 55.75699 11.78432 14672 ft 341 kts 91°
2026-05-04 18:44 55.75683 11.81216 14510 ft 339 kts 90°
2026-05-04 18:44 55.75682 11.86770 14185 ft 333 kts 90°
2026-05-04 18:44 55.75681 11.90868 13938 ft 329 kts 91°
2026-05-04 18:45 55.75667 11.94915 13693 ft 326 kts 91°
2026-05-04 18:45 55.75640 11.98919 13421 ft 322 kts 91°
2026-05-04 18:45 55.75604 12.02874 13157 ft 319 kts 91°
2026-05-04 18:45 55.75563 12.06783 12889 ft 315 kts 91°
2026-05-04 18:46 55.75520 12.10654 12684 ft 310 kts 91°
2026-05-04 18:46 55.75477 12.14489 12192 ft 316 kts 91°
2026-05-04 18:46 55.75435 12.18345 11956 ft 306 kts 91°
2026-05-04 18:46 55.75389 12.22081 11522 ft 300 kts 92°
2026-05-04 18:47 55.75344 12.25714 11222 ft 289 kts 91°
2026-05-04 18:47 55.75302 12.29202 10808 ft 285 kts 91°
2026-05-04 18:47 55.75260 12.32701 10347 ft 282 kts 91°
2026-05-04 18:47 55.75216 12.36156 9893 ft 279 kts 91°
2026-05-04 18:48 55.75171 12.39585 9384 ft 277 kts 91°
2026-05-04 18:48 55.75126 12.42985 8865 ft 274 kts 91°
2026-05-04 18:48 55.75080 12.46348 8357 ft 271 kts 91°
2026-05-04 18:48 55.75032 12.49682 7852 ft 269 kts 91°
2026-05-04 18:49 55.74982 12.52989 7337 ft 266 kts 91°
2026-05-04 18:49 55.74934 12.56261 6827 ft 264 kts 91°
2026-05-04 18:49 55.74910 12.59503 6328 ft 261 kts 85°
2026-05-04 18:49 55.75245 12.62634 5801 ft 257 kts 69°
2026-05-04 18:50 55.76002 12.65460 5310 ft 251 kts 53°
2026-05-04 18:50 55.77101 12.67813 4799 ft 245 kts 38°
2026-05-04 18:50 55.78378 12.69768 4587 ft 243 kts 37°
2026-05-04 18:50 55.79626 12.71682 4418 ft 229 kts 37°
2026-05-04 18:51 55.80796 12.73506 4087 ft 221 kts 38°
2026-05-04 18:51 55.81682 12.75699 3689 ft 221 kts 71°
2026-05-04 18:51 55.81822 12.78400 3416 ft 221 kts 93°
2026-05-04 18:51 55.81364 12.80983 3315 ft 222 kts 127°
2026-05-04 18:52 55.80334 12.82968 3248 ft 221 kts 139°
2026-05-04 18:52 55.79199 12.84775 3166 ft 211 kts 140°
2026-05-04 18:52 55.78105 12.86384 3081 ft 204 kts 151°
2026-05-04 18:52 55.76788 12.87070 3015 ft 196 kts 183°
2026-05-04 18:53 55.75485 12.86626 2964 ft 189 kts 210°
2026-05-04 18:53 55.74439 12.85300 2916 ft 184 kts 226°
2026-05-04 18:53 55.73473 12.83783 2843 ft 186 kts 226°
2026-05-04 18:53 55.72503 12.82265 2639 ft 186 kts 226°
2026-05-04 18:54 55.71543 12.80767 2426 ft 179 kts 226°
2026-05-04 18:54 55.70630 12.79344 2189 ft 169 kts 226°
2026-05-04 18:54 55.69765 12.77997 1973 ft 163 kts 226°
2026-05-04 18:54 55.68924 12.76685 1738 ft 160 kts 226°
2026-05-04 18:55 55.68095 12.75393 1507 ft 158 kts 225°
2026-05-04 18:55 55.66554 12.73000 1092 ft 137 kts 226°
2026-05-04 18:55 55.65855 12.71912 913 ft 135 kts 225°
2026-05-04 18:56 55.65149 12.70813 733 ft 135 kts 225°
2026-05-04 18:56 55.64446 12.69721 556 ft 135 kts 224°
2026-05-04 18:56 55.63734 12.68615 371 ft 136 kts 224°
2026-05-04 18:56 55.63021 12.67507 206 ft 137 kts 225°
2026-05-04 18:57 55.62311 12.66403 32 ft 133 kts 224°
2026-05-04 18:57 55.61722 12.65481 24 ft 89 kts 221°
2026-05-04 18:57 55.61404 12.64989 26 ft 34 kts 222°
2026-05-04 18:57 55.61272 12.64684 26 ft 30 kts 245°
2026-05-04 18:58 55.61220 12.64414 26 ft 19 kts 252°
2026-05-04 18:58 55.61195 12.64186 25 ft 19 kts 284°
2026-05-04 18:58 55.61285 12.64120 24 ft 15 kts 21°
2026-05-04 18:58 55.61376 12.64218 24 ft 15 kts 32°
2026-05-04 18:59 55.61461 12.64317 24 ft 14 kts 33°
2026-05-04 18:59 55.61542 12.64411 24 ft 15 kts 32°
2026-05-04 18:59 55.61658 12.64544 26 ft 24 kts 33°
2026-05-04 18:59 55.61801 12.64708 24 ft 25 kts 32°
2026-05-04 19:00 55.61949 12.64876 23 ft 23 kts 33°
2026-05-04 19:00 55.62058 12.65004 24 ft 19 kts 34°
2026-05-04 19:00 55.62129 12.65085 24 ft 0 kts 33°
2026-05-04 19:02 55.62141 12.65099 24 ft 9 kts 33°
2026-05-04 19:02 55.62230 12.65192 24 ft 18 kts 18°
2026-05-04 19:03 55.62358 12.65203 24 ft 19 kts
2026-05-04 19:03 55.62439 12.65266 26 ft 13 kts 78°
2026-05-04 19:03 55.62448 12.65411 26 ft 11 kts 59°
2026-05-04 19:03 55.62506 12.65464 24 ft 6 kts 23°
2026-05-04 19:04 55.62515 12.65470 24 ft 0 kts 23°